[[{"header":{"parameterUnit":"m.s-1","parameterCategory":1,"la1":30.2992,"la2":30.254,"lo1":-89.0895,"lo2":-89.0443,"dy":0.0025,"dx":0.0025,"nx":19,"ny":19,"refTime":"2026-05-04T09:00:00:Z","depth":0,"parameterNumber":2,"parameterNumberName":"U-component_of_WINDS"},"data":[0,0,0,-0.0981,-0.0982,-0.1056,-0.1057,-0.1147,-0.1147,0,0,0,0,0,0,0,0,0,0,0,-0.0953,-0.0953,-0.0981,-0.0982,-0.1056,-0.1057,-0.1146,-0.1147,0,0,0,0,0,0,0,0,0,0,0,-0.0953,-0.0953,-0.0954,-0.0982,-0.1056,-0.1057,-0.1146,-0.1093,0,0,0,0,0,0,0,0,0,0,-0.1022,-0.099,-0.0953,-0.0954,-0.0983,-0.1056,-0.1057,-0.109,-0.1096,-0.111,0,-0.1119,0,-0.1134,-0.1153,-0.1153,0,0,0,-0.0987,-0.0985,-0.101,-0.0954,-0.0984,-0.1056,-0.1024,-0.1094,-0.11,-0.1118,-0.112,-0.1124,-0.1136,-0.1153,-0.1154,-0.1214,-0.1214,0,0,-0.0983,-0.0964,-0.1005,-0.1014,-0.0999,-0.1022,-0.1027,-0.1098,-0.11,-0.112,-0.1126,-0.1137,-0.1154,-0.1154,-0.1214,-0.1214,0,0,0,-0.0968,-0.0961,-0.0984,-0.101,-0.1024,-0.1024,-0.1029,-0.1097,-0.1106,-0.1127,-0.1138,-0.1154,-0.1155,-0.1214,-0.1214,-0.1198,0,0,0,-0.0966,-0.0952,-0.0982,-0.0971,-0.1022,-0.1061,-0.1027,-0.1101,-0.111,-0.1138,-0.1154,-0.1156,-0.1214,-0.1214,-0.1199,-0.1194,0,0,0,-0.095,-0.095,-0.0959,-0.097,-0.1001,-0.106,-0.1073,-0.1103,-0.1116,-0.1153,-0.1156,-0.1214,-0.1214,-0.1199,-0.1195,-0.1206,0,0,0,-0.0929,-0.0944,-0.0958,-0.098,-0.1,-0.1049,-0.1073,-0.111,-0.114,-0.1155,-0.1214,-0.1214,-0.1199,-0.1195,-0.1206,-0.1211,-0.1212,0,0,-0.0937,-0.0944,-0.0958,-0.0974,-0.1014,-0.1039,-0.1079,-0.1125,-0.1146,-0.1191,-0.1193,-0.1198,-0.1195,-0.1206,-0.1218,-0.1218,0,0,0,-0.0955,-0.0965,-0.098,-0.1006,-0.1041,-0.1072,-0.1113,-0.1131,-0.117,-0.1164,-0.1205,-0.1204,-0.1211,-0.1215,-0.1215,-0.1223,-0.1215,-0.1215,-0.1215,-0.0939,-0.0966,-0.0992,-0.1028,-0.1054,-0.1098,-0.1122,-0.1154,-0.1173,-0.1182,-0.1196,-0.12,-0.1204,-0.1204,-0.1212,-0.12,-0.12,-0.12,-0.12,-0.0955,-0.0974,-0.1,-0.1035,-0.1064,-0.1095,-0.1139,-0.1152,-0.1186,-0.1192,-0.1199,-0.1204,-0.1203,-0.1212,-0.1199,-0.12,-0.12,-0.12,-0.12,-0.0949,-0.0962,-0.0983,-0.1025,-0.1056,-0.1093,-0.1125,-0.115,-0.1175,-0.1182,-0.1201,-0.1201,-0.1206,-0.1189,-0.1189,-0.1189,-0.1189,-0.1189,-0.1189,-0.0934,-0.0957,-0.098,-0.1019,-0.1041,-0.1073,-0.1118,-0.1141,-0.1173,-0.119,-0.119,-0.121,-0.1197,-0.1194,-0.119,-0.1189,-0.1189,-0.1189,-0.1189,-0.0941,-0.0944,-0.0978,-0.1,-0.105,-0.108,-0.1112,-0.1157,-0.118,-0.1195,-0.1214,-0.12,-0.1209,-0.121,-0.1207,-0.1207,-0.1207,-0.1207,-0.1207,-0.0936,-0.0943,-0.0985,-0.1019,-0.1054,-0.1088,-0.113,-0.1166,-0.1205,-0.1222,-0.1225,-0.1224,-0.1223,-0.1234,-0.1233,-0.1232,-0.1237,-0.1237,-0.1237,-0.0943,-0.0955,-0.0984,-0.102,-0.1061,-0.1097,-0.1138,-0.1178,-0.1222,-0.1239,-0.1236,-0.1234,-0.1233,-0.1231,-0.1247,-0.1246,-0.1243,0,0]},{"header":{"parameterUnit":"m.s-1","parameterCategory":1,"la1":30.2992,"la2":30.254,"lo1":-89.0895,"lo2":-89.0443,"dy":0.0025,"dx":0.0025,"nx":19,"ny":19,"refTime":"2026-05-04T09:00:00:Z","depth":0,"parameterNumber":3,"parameterNumberName":"V-component_of_WINDS"},"data":[0,0,0,5.6263,5.6265,5.6349,5.6349,5.6469,5.647,0,0,0,0,0,0,0,0,0,0,0,5.6249,5.6251,5.6263,5.6265,5.6349,5.6349,5.6469,5.647,0,0,0,0,0,0,0,0,0,0,0,5.6249,5.625,5.6252,5.6266,5.6349,5.6349,5.6468,5.64,0,0,0,0,0,0,0,0,0,0,5.6316,5.6315,5.625,5.6252,5.6266,5.6349,5.6349,5.6396,5.6404,5.6437,0,5.6472,0,5.6473,5.6479,5.648,0,0,0,5.6257,5.6309,5.6322,5.6252,5.6267,5.6348,5.6309,5.6401,5.641,5.6448,5.6474,5.6478,5.6475,5.648,5.6481,5.6703,5.6705,0,0,5.6252,5.627,5.6316,5.6328,5.6319,5.6306,5.6311,5.6406,5.6435,5.6474,5.6481,5.6477,5.6481,5.6482,5.6702,5.6704,0,0,0,5.6245,5.6267,5.6277,5.6323,5.6338,5.6309,5.6315,5.643,5.6432,5.6482,5.6479,5.6482,5.6483,5.67,5.6703,5.6789,0,0,0,5.6241,5.6263,5.6275,5.6287,5.6336,5.6386,5.6338,5.6426,5.6436,5.6478,5.6482,5.6485,5.6699,5.6702,5.6783,5.6826,0,0,0,5.624,5.6262,5.6279,5.6288,5.6325,5.6384,5.6391,5.6427,5.6434,5.648,5.6485,5.6698,5.6701,5.6778,5.6817,5.6886,0,0,0,5.6244,5.6357,5.628,5.6405,5.6324,5.6438,5.639,5.6474,5.6523,5.6482,5.6699,5.6702,5.6776,5.6812,5.6881,5.6945,5.6974,0,0,5.6396,5.6376,5.6447,5.6381,5.6513,5.6424,5.6567,5.6596,5.6584,5.6663,5.6668,5.6785,5.6817,5.6885,5.7139,5.7163,0,0,0,5.6501,5.6552,5.6583,5.6631,5.6656,5.6678,5.6683,5.6692,5.6759,5.6629,5.683,5.6848,5.6887,5.6917,5.6937,5.6967,5.6718,5.6718,5.6717,5.6742,5.6719,5.6833,5.682,5.6867,5.6868,5.6903,5.6915,5.6881,5.6929,5.6951,5.7108,5.7144,5.7159,5.7191,5.6986,5.6987,5.6987,5.6987,5.6959,5.7025,5.6974,5.7066,5.704,5.7117,5.7122,5.7094,5.7159,5.7091,5.7124,5.7048,5.7185,5.7211,5.6993,5.6992,5.6992,5.6991,5.699,5.7111,5.7138,5.7148,5.7211,5.7261,5.7243,5.7307,5.7283,5.726,5.7293,5.7311,5.7309,5.7301,5.7304,5.7304,5.7305,5.7305,5.7306,5.7306,5.7263,5.7271,5.7328,5.7361,5.7385,5.7414,5.7414,5.7437,5.7455,5.7432,5.7432,5.7389,5.7205,5.7156,5.7314,5.7313,5.7312,5.7311,5.7311,5.7486,5.7431,5.7519,5.7544,5.7576,5.7625,5.7592,5.764,5.7655,5.7686,5.7636,5.7505,5.7482,5.7466,5.7425,5.7644,5.7644,5.7644,5.7644,5.7611,5.7597,5.7679,5.7718,5.7754,5.7732,5.7828,5.7828,5.7819,5.7826,5.7791,5.7737,5.7722,5.7707,5.7686,5.7647,5.7917,5.7917,5.7918,5.7745,5.7732,5.782,5.781,5.7832,5.7851,5.7938,5.7983,5.7962,5.7928,5.7829,5.7818,5.773,5.7703,5.7665,5.7632,5.7561,0,0]}]]